Buffalo, WY

1:49 AM MST on February 07, 2016 (GMT -0700)
Buffalo | | Change Station
CLOSE
Current Station
Personal Weather Station
Location: Buffalo, WY
Elevation: 4708 ft
Nearby Weather Stations

Elev 4708 ft 44.34 °N, 106.70 °W | Updated 25 seconds ago

Overcast
Overcast
33.3 °F
Feels Like 23 °F
N
15.0
Wind Variable Wind from NNW
Gusts 17.4 mph

Today
High -- | Low -- °F
--% Chance of Precip.
Yesterday
High -- | Low -- °F
Precip. -- in
Pressure 30.15 in
Visibility 10.0 miles
Clouds Overcast 5000 ft
Windchill 23 °F
Dew Point 18 °F
Humidity 52%
Rainfall 0.00 in
Snow Depth Not available.
7:18 AM 5:24 PM
Waning Crescent, 2% visible
METAR KBYG 070753Z AUTO 32024G34KT 10SM OVC050 01/M08 A3015 RMK AO2 PK WND 32042/0716 SNE19 SLP208 P0001 T00061083 $
Pressure 30.15 in
Visibility 10.0 miles
Clouds Overcast 5000 ft
Windchill 23 °F
Dew Point 18 °F
Humidity 52%
Rainfall 0.00 in
Snow Depth Not available.
7:18 AM 5:24 PM
Waning Crescent, 2% visible
METAR KBYG 070753Z AUTO 32024G34KT 10SM OVC050 01/M08 A3015 RMK AO2 PK WND 32042/0716 SNE19 SLP208 P0001 T00061083 $

10-Day Weather Forecast

Almanac

Astronomy

Feb. 07, 2016 Rise Set
Actual Time
Civil Twilight
Nautical Twilight
Astronomical Twilight
Moon
Length of Visible Light
Length of Day
Tomorrow will be .
, % of the Moon is Illuminated

Today's Extremes

State Highs State Lows

Community

WunderPhotos

Upload Photos

1,891,171 photos uploaded!

WunderBlog® & News

Nearby

Air Quality

  Air Quality AQ Index Pollutant
Not available.

Snow Depth

Station Depth Elevation

Earthquake Activity

City Distance Mag. Time & Date
Minimum magnitude displayed is 2.5.

Coastal Water Temperatures

Place Temperature

Stations

Nearby Weather Stations

Station Location Temp. Windchill Dew Point Humidity Wind Precip. Elev Updated Type
                   

Watches & Warnings

There are currently no watches in effect.